User: anonymous   Login
Location: Oshawa
(43.9000°N, 78.8670°W)
Time: 01:15:18
(UTC-04:00)
Language:

CARTOSAT-1 - Orbit

View from above orbital plane
View from above orbital plane
View from above satellite
View from above satellite

Ground track
Ground track

The orbit data is extracted from the following two-line orbital elements,

1 28649U 05017A   17175.44053565 +.00000097 +00000-0 +18208-4 0  9994
2 28649 097.8603 249.7318 0003038 045.3602 314.7863 14.83450110657054
Epoch (UTC): 24 June 2017 10:34:22
Eccentricity: 0.0003038
inclination: 97.8603°
perigee height: 616 km
apogee height: 620 km
right ascension of ascending node: 249.7318°
argument of perigee: 45.3602°
revolutions per day: 14.83450110
mean anomaly at epoch: 314.7863°
orbit number at epoch: 65705

The dashed part of the orbit path shows where the satellite is in the earth's shadow,  

DLR